Location: Newark
(45.1000°N, 8.5833°E)
Time: 10:05:20
(UTC+00:00)

ISS - Visible Passes

Search period start: 16 September 2019 00:00
Search period end: 26 September 2019 00:00
Orbit: 411 x 421 km, 51.6° (Epoch: 16 September)

Date Brightness Start Highest point End Pass type
(mag) Time Alt. Az. Time Alt. Az. Time Alt. Az.
18 Sep -1.5 19:24:04 10° SSW 19:24:55 16° SSW 19:24:55 16° SSW visible
19 Sep -2.6 18:36:07 10° SSW 18:38:49 23° SE 18:39:17 23° ESE visible
19 Sep -0.6 20:12:04 10° WSW 20:12:14 11° WSW 20:12:14 11° WSW visible
20 Sep -3.5 19:23:31 10° WSW 19:26:20 61° WSW 19:26:20 61° WSW visible
21 Sep -3.7 18:35:06 10° SW 18:38:22 59° SE 18:40:12 23° ENE visible
21 Sep -0.8 20:12:11 10° W 20:13:07 17° WNW 20:13:07 17° WNW visible
22 Sep -3.0 17:46:52 10° SSW 17:49:56 35° SE 17:53:01 10° ENE visible
22 Sep -2.9 19:23:26 10° W 19:26:39 43° NNW 19:26:49 43° N visible
23 Sep -3.4 18:34:45 10° WSW 18:38:03 62° NNW 18:40:23 18° NE visible
23 Sep -0.7 20:12:21 10° WNW 20:13:17 16° NW 20:13:17 16° NW visible
24 Sep -3.8 17:46:12 10° WSW 17:49:30 88° SSE 17:52:51 10° ENE visible
24 Sep -2.2 19:23:34 10° WNW 19:26:32 29° NNW 19:26:45 29° N visible
25 Sep -2.4 18:34:46 10° W 18:37:52 35° NNW 18:40:07 16° NE visible
25 Sep -0.5 20:12:20 10° NW 20:13:01 14° NW 20:13:01 14° NW visible
